Location: Luna
(33.8188°N, 108.9564°W)
Time: 09:32:08
(UTC+00:00)

Tiangong - Pass Details

Date: 03 December 2022
Orbit: 383 x 386 km, 41.5° (Epoch: 28 January)

Event Time Altitude Azimuth Distance (km) Brightness Sun altitude
Rises 01:57:02 0° 286° (WNW) 2,258 2.8 -22.4°
Reaches altitude 10° 01:59:27 10° 304° (NW) 1,407 1.3 -22.9°
Enters shadow 02:00:43 17° 324° (NW) 1,076 0.3 -23.1°
